Location: Be?chatów
(51.3665°N, 19.3745°E)
Time: 16:19:12
(UTC+00:00)

Cosmos 2369 - Pass Details

Date: 19 May 2025
Orbit: 840 x 853 km, 71.0° (Epoch: 20 June)

Event Time Altitude Azimuth Distance (km) Brightness Sun altitude
Rises 21:31:01 0° 326° (NW) 3,415 8.3 -17.1°
Reaches altitude 10° 21:33:33 10° 321° (NW) 2,474 7.2 -17.2°
Maximum altitude 21:38:55 45° 250° (WSW) 1,133 4.3 -17.5°
Enters shadow 21:41:42 26° 193° (SSW) 1,605 4.6 -17.6°
